Location: Boiro
(42.6475°N, 8.8834°W)
Time: 23:17:26
(UTC+01:00)

Altair - Pass Details

Date: 30 November 2021
Orbit: 1501 x 1683 km, 47.2° (Epoch: 18 January)

Event Time Altitude Azimuth Distance (km) Brightness Sun altitude
Rises 15:52:21 0° 189° (S) 4,796 11.3 17.1°
Reaches altitude 10° 15:56:19 10° 176° (S) 3,783 10.5 16.7°
Maximum altitude 16:03:16 23° 129° (SE) 2,835 9.0 15.9°
Drops below altitude 10° 16:10:03 10° 81° (E) 3,697 9.1 15.1°
Sets 16:13:50 0° 68° (ENE) 4,663 9.5 14.7°
